Location: Hradec Kralove
(50.2170°N, 15.8330°E)
Time: 01:27:08
(UTC+02:00)

AO-73 - Pass Details

Date: 21 September 2024
Orbit: 549 x 616 km, 97.7° (Epoch: 04 October)

Event Time Altitude Azimuth Distance (km) Brightness Sun altitude
Rises 03:30:11 0° 21° (NNE) 2,795 ? -28.8°
Reaches altitude 10° 03:32:34 10° 33° (NNE) 1,880 ? -28.5°
Maximum altitude 03:36:11 30° 95° (E) 1,019 ? -28.1°
Enters shadow 03:36:12 30° 96° (E) 1,019 ? -28.1°
